Waarnemingen

Advertentie
Mijn weer
Caen, Frankrijk (7027): temperatuur & dauwpunt: 12.09.2019 11:00:00 - 18.09.2019 11:00:00 (CEST)Caen, Frankrijk (7027): temperatuur 5cm: 12.09.2019 11:00:00 - 18.09.2019 11:00:00 (CEST)Caen, Frankrijk (7027): temperatuur -20cm & temperatuur -100cm: 12.09.2019 11:00:00 - 18.09.2019 11:00:00 (CEST)Caen, Frankrijk (7027): windsnelheid & windstoten: 12.09.2019 11:00:00 - 18.09.2019 11:00:00 (CEST)Caen, Frankrijk (7027): windrichting: 12.09.2019 11:00:00 - 18.09.2019 11:00:00 (CEST)Caen, Frankrijk (7027): luchtdruk: 12.09.2019 11:00:00 - 18.09.2019 11:00:00 (CEST)Caen, Frankrijk (7027): zicht: 12.09.2019 11:00:00 - 18.09.2019 11:00:00 (CEST)Caen, Frankrijk (7027): Zonneschijnduur: 12.09.2019 11:00:00 - 18.09.2019 11:00:00 (CEST)Caen, Frankrijk (7027): neerslag: 12.09.2019 11:00:00 - 18.09.2019 11:00:00 (CEST)
Datum & Tijd tt [°C] td [°C] tt 5cm [°C] tt -20cm [°C] tt -100cm [°C] ff [km/u] ff [kn] fx [km/u] fx [kn] dd ppp [hPa] vv [km] sd [min] rr [mm]
18.09.2019 11:00:00 15,1 5,6 17,7 17,4 17,2 25 14 44 24 O 1028,0 53 60 0,0
18.09.2019 10:00:00 13,8 6,4 14,4 17,4 17,1 21 11 34 18 ONO 1027,8 60 60 0,0
18.09.2019 09:00:00 12,2 6,2 10,9 17,6 17,1 15 8 24 13 ONO 1027,4 52 55 0,0
18.09.2019 08:00:00 11,2 6,7 9,4 17,7 17,1 15 8 27 15 ONO 1026,8 47 0 0,0
18.09.2019 07:00:00 10,4 6,7 9,5 17,8 17,1 9 5 24 13 ONO 1026,6 46 0 0,0
18.09.2019 06:00:00 11,4 6,9 10,7 17,9 17,1 13 7 26 14 ONO 1026,3 45 0 0,0
18.09.2019 05:00:00 11,7 7,0 10,8 18,0 17,1 13 7 29 16 O 1026,4 42 0 0,0
18.09.2019 04:00:00 12,5 7,4 11,7 18,1 17,1 19 10 35 19 O 1026,2 45 0 0,0
18.09.2019 03:00:00 12,7 7,8 12,0 18,2 17,1 18 10 34 19 ONO 1026,2 57 0 0,0
18.09.2019 02:00:00 12,8 8,1 12,2 18,3 17,1 15 8 32 17 ONO 1026,0 60 0 0,0
18.09.2019 01:00:00 13,7 8,5 13,0 18,3 17,1 19 11 40 22 ONO 1025,5 60 0 0,0
18.09.2019 00:00:00 14,0 10,2 13,2 18,4 17,1 11 6 25 14 ONO 1025,3 58 0 0,0
17.09.2019 23:00:00 14,2 10,6 13,3 18,5 17,1 13 7 23 12 NO 1024,9 56 0 0,0
17.09.2019 22:00:00 14,5 10,3 13,6 18,5 17,1 11 6 23 12 NO 1024,6 50 0 0,0
17.09.2019 21:00:00 14,9 10,3 14,3 18,5 17,1 13 7 31 17 NNO 1024,4 53 0 0,0
17.09.2019 20:00:00 15,5 11,3 15,3 18,4 17,1 15 8 34 19 NNO 1023,8 42 47 0,0
17.09.2019 19:00:00 16,5 11,4 18,4 18,3 17,1 19 11 36 19 NNO 1023,8 46 60 0,0
17.09.2019 18:00:00 17,3 11,3 20,8 18,2 17,1 19 10 33 18 NNO 1023,7 47 56 0,0
17.09.2019 17:00:00 18,4 11,9 23,1 18,1 17,1 18 10 37 20 N 1023,8 52 60 0,0
17.09.2019 16:00:00 19,3 12,8 21,7 18,1 17,1 16 9 32 18 NNO 1023,7 57 51 0,0
17.09.2019 15:00:00 19,3 13,0 24,3 18,0 17,1 17 9 31 17 NNO 1023,8 50 60 0,0
17.09.2019 14:00:00 19,0 13,6 19,6 18,1 17,1 16 9 34 18 NO 1023,9 43 28 0,0
17.09.2019 13:00:00 17,9 14,2 18,0 18,1 17,1 19 11 36 19 NNO 1024,0 42 0 0,0
17.09.2019 12:00:00 17,7 14,4 16,4 18,1 17,1 12 7 21 11 NNO 1024,2 39 0 0,0
17.09.2019 11:00:00 17,1 14,6 16,1 18,1 17,1 10 6 23 12 ONO 1023,9 40 0 0,4
17.09.2019 10:00:00 17,1 16,1 16,9 18,1 17,1 9 5 19 10 ONO 1023,4 6 0 0,0
17.09.2019 09:00:00 16,9 16,6 16,3 18,2 17,1 6 3 10 5 N 1022,7 6 0 0,0
17.09.2019 08:00:00 16,3 16,1 16,1 18,2 17,1 9 5 13 7 NW 1022,4 4,5 0 0,0
17.09.2019 07:00:00 16,2 15,7 16,0 18,2 17,1 11 6 13 7 WNW 1022,2 2,0 0 0,6
17.09.2019 06:00:00 16,2 15,6 16,0 18,3 17,1 8 5 12 6 WNW 1022,2 10 0 0,0
17.09.2019 05:00:00 16,3 15,5 16,4 18,3 17,1 8 5 12 6 WNW 1022,2 20 0 0,0
17.09.2019 04:00:00 16,6 15,5 16,7 18,3 17,1 10 5 12 6 WNW 1022,2 27 0 0,0
17.09.2019 03:00:00 16,8 15,3 16,8 18,3 17,1 7 4 9 5 WNW 1022,3 47 0 0,0
17.09.2019 02:00:00 17,0 15,2 16,7 18,4 17,1 5 3 8 4 NNW 1022,6 36 0 0,0
17.09.2019 01:00:00 16,8 15,0 16,8 18,4 17,1 4 2 14 8 WNW 1023,1 40 0 0,0
17.09.2019 00:00:00 16,7 15,1 16,7 18,4 17,1 6 4 18 10 NNW 1022,9 47 0 0,0
16.09.2019 23:00:00 16,6 15,1 16,6 18,4 17,1 9 5 19 10 NNW 1023,0 45 0 0,0
16.09.2019 22:00:00 16,6 14,8 16,7 18,3 17,1 11 6 20 11 NNW 1022,8 53 0 0,0
16.09.2019 21:00:00 16,9 14,9 17,1 18,3 17,1 10 5 23 12 NNW 1022,7 43 0 0,0
16.09.2019 20:00:00 17,4 15,0 17,4 18,2 17,1 14 8 23 13 NNW 1022,4 34 12 0,0
16.09.2019 19:00:00 18,1 14,8 19,9 18,0 17,1 12 6 27 15 NNW 1022,0 48 42 0,0
16.09.2019 18:00:00 19,6 15,0 23,0 17,8 17,1 16 9 28 15 N 1022,2 38 50 0,0
16.09.2019 17:00:00 20,3 15,3 24,1 17,6 17,1 16 8 29 16 N 1022,3 18 53 0,0
16.09.2019 16:00:00 21,1 15,4 26,5 17,4 17,1 16 8 29 16 N 1022,4 20 55 0,0
16.09.2019 15:00:00 22,1 15,7 26,9 17,3 17,1 12 6 22 12 NNO 1022,3 47 54 0,0
16.09.2019 14:00:00 22,2 15,3 27,3 17,2 17,1 6 4 21 11 WNW 1022,6 20 58 0,0
16.09.2019 13:00:00 20,5 15,3 22,9 17,2 17,1 9 5 22 12 N 1023,1 56 40 0,0
16.09.2019 12:00:00 20,4 14,7 26,5 17,2 17,1 5 3 14 7 WNW 1023,1 59 60 0,0
16.09.2019 11:00:00 18,2 13,3 14,8 17,3 17,1 3 2 9 5 ZZW 1023,4 20 56 0,0
16.09.2019 10:00:00 14,0 12,2 12,6 17,4 17,1 3 2 8 4 OZO 1023,5 18 32 0,0
16.09.2019 09:00:00 11,2 11,2 8,4 17,5 17,1 4 2 9 5 Z 1023,1 10 26 0,0
16.09.2019 08:00:00 9,5 9,5 6,6 17,6 17,1 3 2 11 6 WNW 1023,1 4,4 0 0,0
16.09.2019 07:00:00 9,0 9,0 5,5 17,8 17,1 4 2 10 5 W 1022,9 3,7 0 0,0
16.09.2019 06:00:00 9,4 9,3 5,2 17,9 17,1 4 2 10 5 WZW 1022,9 3,7 0 0,0
16.09.2019 05:00:00 8,9 8,9 4,2 18,0 17,1 7 4 12 6 WZW 1023,1 1,0 0 0,0
16.09.2019 04:00:00 9,6 9,3 5,8 18,1 17,0 13 7 17 9 ZW 1023,4 3,3 0 0,2
16.09.2019 03:00:00 9,2 8,7 5,0 18,2 17,1 9 5 10 6 ZW 1023,9 2,5 0 0,0
16.09.2019 02:00:00 9,7 9,2 6,3 18,3 17,0 5 3 14 8 W 1024,0 3,3 0 0,0
16.09.2019 01:00:00 10,5 10,0 6,1 18,4 17,1 4 2 9 5 WZW 1024,0 6 0 0,0
16.09.2019 00:00:00 11,7 10,9 6,8 18,5 17,0 4 2 6 3 WZW 1024,3 12 0 0,0
15.09.2019 23:00:00 12,2 11,4 8,2 18,5 17,1 5 3 8 4 W 1024,4 18 0 0,0
15.09.2019 22:00:00 13,1 11,0 10,0 18,5 17,1 6 3 11 6 NW 1024,3 28 0 0,0
15.09.2019 21:00:00 15,4 11,6 11,3 18,4 17,1 3 1 14 7 WNW 1024,2 45 0 0,0
15.09.2019 20:00:00 18,1 11,9 17,9 18,3 17,0 10 5 19 10 N 1023,9 60 52 0,0
15.09.2019 19:00:00 20,1 11,6 24,1 18,1 17,1 12 6 23 12 N 1023,8 60 60 0,0
15.09.2019 18:00:00 20,9 12,3 25,5 17,9 17,0 15 8 26 14 N 1023,8 60 60 0,0
15.09.2019 17:00:00 21,9 13,3 27,7 17,8 17,1 12 6 26 14 N 1023,9 19 60 0,0
15.09.2019 16:00:00 22,9 14,2 29,2 17,6 17,1 9 5 21 12 N 1024,5 56 60 0,0
15.09.2019 15:00:00 22,2 14,1 28,2 17,4 17,0 12 7 25 13 N 1025,1 20 60 0,0
15.09.2019 14:00:00 21,9 14,0 28,8 17,3 17,1 12 7 23 12 N 1025,9 18 60 0,0
15.09.2019 13:00:00 21,8 14,2 27,2 17,3 17,0 7 4 21 12 ONO 1026,1 18 60 0,0
15.09.2019 12:00:00 20,5 14,8 24,5 17,3 17,0 9 5 18 10 N 1026,4 20 60 0,0
15.09.2019 11:00:00 17,6 15,2 17,7 17,3 17,0 5 3 15 8 NW 1026,4 12 13 0,0
15.09.2019 10:00:00 16,4 16,1 16,0 17,4 17,0 3 2 13 7 WNW 1026,5 8 0 0,0
15.09.2019 09:00:00 15,4 15,4 14,5 17,5 17,0 8 4 13 7 NW 1026,4 4,8 0 0,0
15.09.2019 08:00:00 14,1 14,1 8,6 17,6 17,0 3 2 9 5 W 1026,0 4,0 0 0,0
15.09.2019 07:00:00 11,2 11,2 7,2 17,7 17,0 6 3 8 5 WNW 1025,9 2,7 0 0,0
15.09.2019 06:00:00 10,3 10,3 7,1 17,8 17,0 5 3 8 4 WNW 1026,2 1,4 0 0,0
15.09.2019 05:00:00 10,1 9,9 7,4 17,9 17,0 8 4 11 6 WNW 1026,5 3,6 0 0,2
15.09.2019 04:00:00 11,1 10,8 8,1 18,0 17,0 6 3 8 5 WNW 1026,6 3,7 0 0,0
15.09.2019 03:00:00 11,5 10,9 8,9 18,1 17,1 4 2 9 5 W 1026,8 3,7 0 0,0
15.09.2019 02:00:00 12,9 12,7 10,0 18,1 17,0 6 3 10 6 WNW 1027,2 4,9 0 0,0
15.09.2019 01:00:00 13,2 12,9 9,8 18,2 17,0 8 4 10 6 NW 1027,4 5 0 0,0
15.09.2019 00:00:00 13,5 13,0 11,6 18,3 17,0 9 5 11 6 NW 1027,9 7 0 0,0
14.09.2019 23:00:00 13,7 13,2 12,0 18,3 17,0 10 5 11 6 WNW 1028,1 8 0 0,0
14.09.2019 22:00:00 15,3 13,8 13,8 18,3 17,0 6 3 15 8 NNW 1028,3 16 0 0,0
14.09.2019 21:00:00 17,1 14,4 15,9 18,2 17,0 6 3 20 11 N 1028,3 36 0 0,0
14.09.2019 20:00:00 18,6 13,7 18,5 18,1 17,0 14 7 32 18 N 1028,2 55 54 0,0
14.09.2019 19:00:00 20,3 13,0 22,8 18,0 17,0 18 10 33 18 N 1028,1 37 60 0,0
14.09.2019 18:00:00 21,4 13,1 25,0 17,8 17,0 16 9 33 18 NNO 1028,1 32 60 0,0
14.09.2019 17:00:00 21,8 13,4 26,1 17,7 17,0 18 10 33 18 NNO 1028,5 20 60 0,0
14.09.2019 16:00:00 21,9 14,3 26,9 17,5 17,0 18 10 32 18 NNO 1029,2 8 60 0,0
14.09.2019 15:00:00 22,1 15,0 27,4 17,4 17,0 16 8 27 14 NNO 1029,7 15 60 0,0
14.09.2019 14:00:00 22,3 14,2 26,7 17,3 17,0 14 8 26 14 NO 1030,1 17 60 0,0
14.09.2019 13:00:00 21,9 13,8 27,5 17,3 17,0 13 7 23 12 O 1030,9 20 60 0,0
14.09.2019 12:00:00 20,1 13,5 24,6 17,3 17,0 7 4 18 10 O 1031,6 20 60 0,0
14.09.2019 11:00:00 18,2 13,1 20,8 17,3 17,0 8 5 19 10 O 1032,0 16 60 0,0
14.09.2019 10:00:00 16,3 12,6 17,6 17,4 17,0 11 6 20 11 NO 1032,3 23 60 0,0
14.09.2019 09:00:00 15,3 12,8 13,4 17,5 17,0 10 5 16 9 ONO 1032,4 18 52 0,0
14.09.2019 08:00:00 13,8 12,4 12,3 17,5 17,0 9 5 15 8 ONO 1032,4 24 1 0,0
14.09.2019 07:00:00 13,5 12,4 11,8 17,6 17,0 4 2 14 8 NNO 1032,7 21 0 0,0
14.09.2019 06:00:00 13,7 12,8 11,3 17,7 17,0 7 4 13 7 NO 1032,6 22 0 0,0
14.09.2019 05:00:00 14,2 13,4 10,1 17,7 17,0 8 4 14 7 ONO 1032,2 30 0 0,0
14.09.2019 04:00:00 14,7 13,2 12,2 17,8 17,0 8 4 14 8 OZO 1032,2 19 0 0,0
14.09.2019 03:00:00 16,7 14,9 16,3 17,8 17,0 9 5 19 11 ONO 1032,9 35 0 0,0
14.09.2019 02:00:00 16,9 15,2 16,5 17,8 17,0 10 5 21 11 NO 1033,1 25 0 0,0
14.09.2019 01:00:00 17,1 15,4 16,1 17,8 17,0 10 5 23 13 NO 1033,3 25 0 0,0
14.09.2019 00:00:00 16,6 15,1 16,1 17,8 17,0 10 6 23 12 NNO 1033,4 30 0 0,0
13.09.2019 23:00:00 16,9 15,2 16,5 17,8 17,0 10 5 23 13 NO 1033,6 31 0 0,0
13.09.2019 22:00:00 17,2 16,1 16,7 17,8 17,0 11 6 22 12 NO 1033,1 26 0 0,0
13.09.2019 21:00:00 17,5 16,4 17,0 17,8 17,0 9 5 22 12 NNO 1033,0 25 0 0,0
13.09.2019 20:00:00 18,5 15,9 18,3 17,7 17,0 9 5 18 10 N 1032,8 52 0 0,0
13.09.2019 19:00:00 19,2 16,1 19,9 17,6 17,0 8 5 22 12 NNO 1032,9 49 0 0,0
13.09.2019 18:00:00 19,6 15,7 20,9 17,5 17,0 13 7 23 12 NO 1033,1 53 8 0,0
13.09.2019 17:00:00 20,2 15,4 22,2 17,5 17,0 10 5 23 13 NO 1033,2 60 0 0,0
13.09.2019 16:00:00 20,0 16,0 20,1 17,4 17,0 10 6 26 14 NNO 1033,6 20 0 0,0
13.09.2019 15:00:00 19,3 16,3 20,3 17,3 17,0 10 5 22 12 N 1033,6 44 0 0,0
13.09.2019 14:00:00 18,6 16,4 19,8 17,3 17,0 8 5 18 10 N 1033,9 6 9 0,0
13.09.2019 13:00:00 18,3 16,5 19,5 17,3 17,0 6 3 15 8 WNW 1033,9 10 0 0,0
13.09.2019 12:00:00 17,8 16,3 19,3 17,3 17,0 7 4 13 7 WNW 1034,0 8 0 0,0
13.09.2019 11:00:00 17,2 16,2 17,4 17,3 17,0 8 4 15 8 W 1034,1 7 0 0,0
13.09.2019 10:00:00 16,9 15,4 16,8 17,3 17,0 13 7 17 9 W 1033,7 34 0 0,0
13.09.2019 09:00:00 16,0 15,0 15,2 17,4 17,0 5 3 9 5 W 1033,5 24 0 0,0
13.09.2019 08:00:00 15,1 14,8 14,3 17,4 16,9 5 3 11 6 ZW 1033,3 19 0 0,0
13.09.2019 07:00:00 14,4 14,1 11,4 17,5 17,0 7 4 16 9 ZW 1032,8 17 0 0,2
13.09.2019 06:00:00 13,8 13,3 11,1 17,6 17,0 9 5 10 6 ZW 1032,3 20 0 0,0
13.09.2019 05:00:00 15,1 14,6 13,9 17,7 17,0 8 5 13 7 ZZW 1032,5 38 0 0,0
13.09.2019 04:00:00 14,4 13,9 12,4 17,7 17,0 10 5 13 7 ZW 1032,5 44 0 0,0
13.09.2019 03:00:00 14,8 14,2 12,2 17,8 17,0 8 5 11 6 ZW 1032,5 53 0 0,0
13.09.2019 02:00:00 14,2 13,6 12,4 17,8 17,0 9 5 14 8 ZZW 1032,6 43 0 0,0
13.09.2019 01:00:00 15,9 14,4 14,5 17,9 17,0 9 5 14 7 WZW 1032,7 51 0 0,0
13.09.2019 00:00:00 16,3 15,3 14,3 17,9 17,0 10 5 14 8 WZW 1032,9 54 0 0,0
12.09.2019 23:00:00 15,4 14,6 13,3 17,9 17,0 11 6 14 7 WZW 1032,8 42 0 0,0
12.09.2019 22:00:00 16,2 13,9 13,4 17,9 17,0 6 4 9 5 W 1032,7 41 0 0,0
12.09.2019 21:00:00 16,8 14,3 13,8 17,9 17,0 7 4 16 9 W 1032,2 54 0 0,0
12.09.2019 20:00:00 19,4 14,9 19,6 17,8 17,0 10 5 26 14 WNW 1031,9 57 38 0,0
12.09.2019 19:00:00 21,0 14,6 21,2 17,7 17,0 18 10 31 17 W 1031,8 60 21 0,0
12.09.2019 18:00:00 21,2 15,1 22,2 17,6 17,0 19 11 31 17 W 1031,5 54 16 0,0
12.09.2019 17:00:00 20,7 15,9 21,3 17,5 17,0 18 10 31 17 W 1031,7 45 2 0,0
12.09.2019 16:00:00 20,7 15,9 21,2 17,5 17,0 21 11 35 19 WNW 1031,9 39 0 0,0
12.09.2019 15:00:00 21,2 16,4 21,8 17,4 17,0 21 12 34 18 W 1031,7 59 0 0,0
12.09.2019 14:00:00 20,1 17,1 20,8 17,3 17,0 16 9 30 16 W 1031,7 50 0 0,0
12.09.2019 13:00:00 20,2 16,8 21,4 17,3 17,0 19 10 33 18 WZW 1031,5 57 4 0,0
12.09.2019 12:00:00 20,9 17,9 20,1 17,2 16,9 21 12 31 17 W 1031,4 41 26 0,0
12.09.2019 11:00:00 19,1 17,8 18,8 17,2 17,0 15 8 24 13 W 1031,1 50 7 0,0

tt = temperatuur
td = dauwpunt
tt 5cm = temperatuur 5cm
tt -20cm = temperatuur -20cm
tt -100cm = temperatuur -100cm
ff = windsnelheid
fx = windstoten
dd = windrichting
ppp = luchtdruk
vv = zicht
sd = Zonneschijnduur
rr = neerslag

Weerstations in de omgeving